SL-3 R/B

Satellite information

Favourite Embed

Satellite Type and Status

ROCKET BODYIN ORBIT

Key statistics

Satellite SL-3 R/B at a glance.

Uptime

16998

Days in orbit

Revolutions

≈ 14.1

Per day

Orbit

LEO

Low Earth Orbit

Inclination

81.2

Latest

Satellite identification and parameters

Extended collection of information and parameters for SL-3 R/B.

Object identification

Identified? True

Debris? False

Object name: SL-3 R/B

International designator: 1978-121B

Object number (NORAD): 11166

Object ID (CCSDS): 11166

Country: COMMONWEALTH OF INDEPENDENT STATES (CIS)

Current information (Y/N): Y

RCS size: LARGE

Orbital parameters

Period: 101.825 minutes

Inclination: 81.2382 deg

SMA: 7223.186 km

Apoapsis: 892.846 km

Periapsis: 797.257 km

RAAN: 180.7902 deg

Eccentricy: 0.0066168

Argument of periapsis: 169.5246 deg

Mean anomaly: 190.7324 deg

Mean motion: 14.1419576 rev/day

Mean motion (dot): 0.00000101 rev/day2

B* drag term: 0.000045239 1/REarth

Two-line elements (TLE)

Creation date: July 5, 2025, 5:45 p.m.

Reference frame: TEME

Reference center: EARTH

Epoch: July 5, 2025, 12:11 p.m. UTC

TLE line 0: 0 SL-3 R/B

TLE line 1: 1 11166U 78121B 25186.50797656 .00000101 00000-0 45239-4 0 9990

TLE line 2: 2 11166 81.2382 180.7902 0066168 169.5246 190.7324 14.14195760399216

Live tracking on map

Real-time ground track for satellite SL-3 R/B.

In-orbit conjunctions

A list of the most updated potential collisions computed for object SL-3 R/B.

Target Orbit TCA Probability of collision Miss distance Type
FENGYUN 1C DEB SSO 2025-05-30 16:37:58 0.001518807 80.0 (m) DEBRIS
FENGYUN 1C DEB SSO 2025-05-30 04:42:48 0.0003383634 97.0 (m) DEBRIS
CZ-6A DEB SSO 2025-03-30 04:06:58 0.0001501443 408.0 (m) DEBRIS
NOAA 16 DEB SSO 2025-03-27 06:30:51 0.0001074645 992.0 (m) DEBRIS
FENGYUN 1C DEB SSO 2024-11-14 00:09:37 0.001057851 980.0 (m) DEBRIS

Associated space launch

Astrophysics (not confirmed) satellite

SL-3 R/B was lifted into orbit during the mission ‘Vostok 8A92M | Astrofizika’, on board a Vostok 8A92M space rocket.

The launch took place on Dec. 23, 1978, 8:39 a.m. from 43/3 (43L).

For more information about the launch, click the button.

Launch to space Vostok 8A92M | Astrofizika
Vostok 8A92M | Astrofizika

Agency: N/A

Status: Launch Successful

Launch date: Dec. 23, 1978, 8:39 a.m. UTC

Rocket: Vostok 8A92M

Launch pad: 43/3 (43L)

Location: Plesetsk Cosmodrome, Russian Federation

...

Latest news about this satellite

There are no fresh news available about this satellite. Check back as we update our databases every day.


Newsletter sign-up

Weekly statistics, charts and insights to help you stay on top of the space industry.